Location: Binningen
(47.7924°N, 8.7261°E)
Time: 06:54:52
(UTC+00:00)

Cosmos 1300 Rocket - Pass Details

Date: 17 May 2021
Orbit: 601 x 627 km, 82.5° (Epoch: 15 June)

Event Time Altitude Azimuth Distance (km) Brightness Sun altitude
Rises 23:11:44 0° 348° (NNW) 2,902 8.4 -22.6°
Reaches altitude 10° 23:13:59 10° 345° (NNW) 1,987 7.2 -22.6°
Maximum altitude 23:18:21 66° 264° (W) 673 3.6 -22.7°
Enters shadow 23:18:38 64° 239° (WSW) 683 3.5 -22.7°
